Location: Schommer Observatory
(40.5200°N, 74.4500°W)
Time: 06:46:31
(UTC-04:00)

ISS - Visible Passes

Search period start: 16 July 2018 00:00
Search period end: 26 July 2018 00:00
Orbit: 402 x 408 km, 51.6° (Epoch: 16 July)

Date Brightness Start Highest point End Pass type
(mag) Time Alt. Az. Time Alt. Az. Time Alt. Az.
16 Jul -1.0 01:09:48 18° N 01:09:48 18° N 01:11:18 10° NNE visible
16 Jul -0.6 02:44:40 10° NNW 02:46:04 12° N 02:47:28 10° NNE visible
16 Jul -0.8 04:21:12 10° NNW 04:23:35 18° NNE 04:25:57 10° ENE visible
17 Jul -0.7 00:19:03 12° NE 00:19:03 12° NE 00:19:25 10° NE visible
17 Jul -0.6 01:52:02 10° NW 01:53:40 13° N 01:55:19 10° NNE visible
17 Jul -0.6 03:29:19 10° NNW 03:31:14 14° NNE 03:33:10 10° NE visible
17 Jul -2.5 05:05:11 10° NW 05:08:23 45° NNE 05:11:33 10° ESE visible
18 Jul -0.8 01:00:31 14° NNW 01:01:18 15° NNW 01:03:22 10° NNE visible
18 Jul -0.5 02:37:18 10° NNW 02:38:51 13° N 02:40:24 10° NE visible
18 Jul -1.6 04:13:15 10° NW 04:16:10 28° NNE 04:19:05 10° E visible
18 Jul -2.7 22:28:52 10° SW 22:35:09 12° NE 22:35:25 10° NE visible
19 Jul -1.1 00:07:08 13° WNW 00:08:57 20° NNW 00:11:27 10° NNE visible
19 Jul -0.3 01:45:03 10° NNW 01:46:25 12° N 01:47:47 10° NNE visible
19 Jul -1.0 03:21:21 10° NNW 03:23:53 20° NNE 03:26:25 10° ENE visible
19 Jul -3.9 04:57:24 10° NW 05:00:42 77° SW 05:03:58 10° SE visible
19 Jul -3.4 21:37:02 10° SSW 21:40:06 39° SE 21:43:11 10° ENE visible
19 Jul -1.7 23:13:46 10° W 23:16:39 28° NNW 23:19:32 10° NE visible
20 Jul -0.3 00:52:28 10° NNW 00:53:59 13° N 00:55:30 10° NNE visible
20 Jul -0.6 02:29:27 10° NNW 02:31:32 16° NNE 02:33:37 10° NE visible
20 Jul -3.1 04:05:20 10° NW 04:08:35 56° NNE 04:11:49 10° ESE visible
20 Jul -2.6 22:21:16 10° WSW 22:24:24 44° NNW 22:27:35 10° NE visible
20 Jul -0.5 23:59:40 10° NW 00:01:33 14° NNW 00:03:27 10° NNE visible
21 Jul -0.4 01:37:28 10° NNW 01:39:07 13° N 01:40:46 10° NE visible
21 Jul -2.0 03:13:20 10° NW 03:16:22 33° NNE 03:19:24 10° E visible
21 Jul -3.0 04:49:54 10° WNW 04:52:49 29° SW 04:55:43 10° SSE visible
21 Jul -3.8 21:28:59 10° SW 21:32:15 81° NW 21:35:32 10° NE visible
21 Jul -0.8 23:06:49 10° WNW 23:09:09 18° NNW 23:11:29 10° NNE visible
22 Jul -0.3 00:45:16 10° NNW 00:46:39 12° N 00:48:03 10° NNE visible
22 Jul -1.3 02:21:24 10° NNW 02:24:04 22° NNE 02:26:46 10° ENE visible
22 Jul -3.9 03:57:32 10° WNW 04:00:47 59° SW 04:04:01 10° SE visible
22 Jul -1.3 22:14:03 10° W 22:16:48 24° NNW 22:19:32 10° NNE visible
22 Jul -0.4 23:52:46 10° NNW 23:54:11 12° N 23:55:36 10° NNE visible
23 Jul -0.7 01:29:27 10° NNW 01:30:51 16° N 01:30:51 16° N visible
23 Jul -2.1 21:21:26 10° W 21:24:30 36° NNW 21:27:34 10° NE visible
23 Jul -0.6 22:59:58 10° NW 23:01:42 13° N 23:03:27 10° NNE visible
24 Jul -0.6 00:37:28 10° NNW 00:39:16 14° N 00:39:27 14° NNE visible
24 Jul -0.7 22:07:05 10° WNW 22:09:15 16° NNW 22:11:25 10° NNE visible
24 Jul -0.6 23:45:19 10° NNW 23:46:47 12° N 23:48:14 10° NNE visible
25 Jul -1.1 21:14:14 10° WNW 21:16:50 21° NNW 21:19:26 10° NNE visible
25 Jul -0.6 22:52:54 10° NNW 22:54:16 12° N 22:55:37 10° NNE visible
